DLH82V EDDF-LPPR

Flight info

Callsign DLH82V
Flight time 2h 11m
Altitude 35000
Route SOBRA2L/18 SOBRA Y180 DIK UN857 TOLVU DCT RAPOR DCT GIMER DCT ESTOC UT300 PON UN872 GODIX/N0435F310 UN872 DIDAK/N0445F370 UN872 TERPO/N0439F350 UN872 ERIGA UZ218 FUJTI DCT ATLEN DCT INSID T326 ASPOR
Aircraft A321/M-SDE3FGHIRWY/LB1

Departure

Time 2026-04-14 07:35
Airport Frankfurt Main Airport (EDDF)

Arrival

Time 2026-04-14 09:47
Airport Francisco de Sá Carneiro Airport (LPPR)
Time Latitude Longitude Altitude Speed Heading
2026-04-14 06:51 50.04435 8.56327 356 ft 0 kts 167°
2026-04-14 07:24 50.04448 8.56323 363 ft 4 kts 168°
2026-04-14 07:24 50.04473 8.56314 362 ft 4 kts 177°
2026-04-14 07:25 50.04496 8.56323 360 ft 4 kts 227°
2026-04-14 07:25 50.04510 8.56357 362 ft 4 kts 248°
2026-04-14 07:25 50.04515 8.56378 360 ft 0 kts 249°
2026-04-14 07:28 50.04511 8.56359 362 ft 6 kts 249°
2026-04-14 07:28 50.04493 8.56287 360 ft 8 kts 249°
2026-04-14 07:29 50.04472 8.56197 357 ft 10 kts 249°
2026-04-14 07:29 50.04446 8.56088 358 ft 12 kts 250°
2026-04-14 07:29 50.04384 8.56033 356 ft 12 kts 168°
2026-04-14 07:29 50.04296 8.56070 355 ft 14 kts 187°
2026-04-14 07:30 50.04240 8.55942 361 ft 16 kts 249°
2026-04-14 07:30 50.04198 8.55767 353 ft 18 kts 250°
2026-04-14 07:30 50.04152 8.55573 359 ft 20 kts 250°
2026-04-14 07:30 50.04102 8.55360 355 ft 21 kts 249°
2026-04-14 07:31 50.04049 8.55144 360 ft 22 kts 250°
2026-04-14 07:31 50.04005 8.54959 359 ft 19 kts 249°
2026-04-14 07:31 50.03956 8.54751 352 ft 22 kts 250°
2026-04-14 07:31 50.03903 8.54530 353 ft 16 kts 249°
2026-04-14 07:32 50.03854 8.54357 350 ft 19 kts 238°
2026-04-14 07:32 50.03787 8.54170 349 ft 21 kts 249°
2026-04-14 07:32 50.03735 8.53950 352 ft 23 kts 250°
2026-04-14 07:32 50.03678 8.53712 349 ft 24 kts 250°
2026-04-14 07:33 50.03615 8.53463 339 ft 26 kts 249°
2026-04-14 07:33 50.03562 8.53241 337 ft 21 kts 249°
2026-04-14 07:33 50.03510 8.53021 335 ft 23 kts 250°
2026-04-14 07:34 50.03395 8.52600 333 ft 6 kts 215°
2026-04-14 07:34 50.03352 8.52592 334 ft 7 kts 181°
2026-04-14 07:34 50.03297 8.52593 332 ft 9 kts 179°
2026-04-14 07:35 50.03122 8.52596 336 ft 54 kts 179°
2026-04-14 07:35 50.02477 8.52601 336 ft 129 kts 179°
2026-04-14 07:35 50.01373 8.52611 448 ft 176 kts 180°
2026-04-14 07:35 50.00167 8.52637 1266 ft 177 kts 180°
2026-04-14 07:36 49.98901 8.52689 1981 ft 189 kts 179°
2026-04-14 07:36 49.97517 8.52757 2470 ft 208 kts 178°
2026-04-14 07:36 49.96013 8.52856 2829 ft 230 kts 176°
2026-04-14 07:36 49.94357 8.52995 3333 ft 243 kts 175°
2026-04-14 07:37 49.92648 8.53141 3962 ft 245 kts 176°
2026-04-14 07:37 49.90950 8.53266 4647 ft 243 kts 177°
2026-04-14 07:37 49.89256 8.53385 5447 ft 244 kts 178°
2026-04-14 07:37 49.87576 8.53429 6168 ft 246 kts 186°
2026-04-14 07:38 49.85901 8.52732 6656 ft 256 kts 201°
2026-04-14 07:38 49.84198 8.51758 7126 ft 265 kts 201°
2026-04-14 07:38 49.82411 8.50729 7557 ft 279 kts 201°
2026-04-14 07:38 49.80573 8.49675 8294 ft 282 kts 201°
2026-04-14 07:39 49.78733 8.48591 9091 ft 283 kts 207°
2026-04-14 07:39 49.77162 8.46814 9849 ft 282 kts 230°
2026-04-14 07:39 49.76187 8.44186 10434 ft 289 kts 252°
2026-04-14 07:39 49.75994 8.40994 10606 ft 312 kts 278°
2026-04-14 07:40 49.76501 8.37609 10745 ft 335 kts 283°
2026-04-14 07:40 49.77089 8.34057 10870 ft 355 kts 283°
2026-04-14 07:40 49.77721 8.30255 11002 ft 373 kts 283°
2026-04-14 07:40 49.78377 8.26282 11240 ft 386 kts 283°
2026-04-14 07:41 49.79039 8.22221 11745 ft 390 kts 283°
2026-04-14 07:41 49.79701 8.18117 12298 ft 393 kts 283°
2026-04-14 07:41 49.80352 8.14033 12853 ft 396 kts 282°
2026-04-14 07:41 49.81007 8.09870 13346 ft 399 kts 282°
2026-04-14 07:42 49.81668 8.05674 13894 ft 402 kts 282°
2026-04-14 07:42 49.82339 8.01442 14374 ft 405 kts 282°
2026-04-14 07:42 49.83015 7.97183 14837 ft 408 kts 282°
2026-04-14 07:42 49.83694 7.92897 15297 ft 411 kts 282°
2026-04-14 07:43 49.84366 7.88626 15755 ft 414 kts 282°
2026-04-14 07:43 49.85045 7.84269 16216 ft 417 kts 282°
2026-04-14 07:43 49.85725 7.79885 16674 ft 420 kts 282°
2026-04-14 07:43 49.86411 7.75464 17129 ft 422 kts 282°
2026-04-14 07:44 49.87110 7.71000 17591 ft 425 kts 282°
2026-04-14 07:44 49.87809 7.66540 18050 ft 428 kts 282°
2026-04-14 07:44 49.88504 7.62095 18466 ft 430 kts 282°
2026-04-14 07:44 49.89209 7.57567 18852 ft 433 kts 282°
2026-04-14 07:45 49.89916 7.53009 19233 ft 435 kts 282°
2026-04-14 07:45 49.90619 7.48430 19623 ft 437 kts 282°
2026-04-14 07:45 49.91319 7.43829 20017 ft 439 kts 281°
2026-04-14 07:45 49.92020 7.39180 20414 ft 442 kts 281°
2026-04-14 07:46 49.92714 7.34580 20832 ft 444 kts 281°
2026-04-14 07:46 49.93424 7.29894 21219 ft 446 kts 281°
2026-04-14 07:46 49.94138 7.25175 21579 ft 449 kts 282°
2026-04-14 07:46 49.94859 7.20419 21910 ft 452 kts 282°
2026-04-14 07:47 49.95572 7.15708 22267 ft 455 kts 282°
2026-04-14 07:47 49.96293 7.10903 22622 ft 457 kts 282°
2026-04-14 07:47 49.97018 7.06060 22972 ft 459 kts 282°
2026-04-14 07:47 49.97742 7.01206 23294 ft 461 kts 282°
2026-04-14 07:48 49.98456 6.96399 23589 ft 463 kts 282°
2026-04-14 07:48 49.99065 6.91475 23847 ft 464 kts 276°
2026-04-14 07:48 49.99216 6.86468 24069 ft 464 kts 268°
2026-04-14 07:48 49.99054 6.81451 24386 ft 463 kts 267°
2026-04-14 07:49 49.98895 6.76438 24682 ft 463 kts 268°
2026-04-14 07:49 49.98746 6.71433 24970 ft 463 kts 268°
2026-04-14 07:49 49.98600 6.66503 25308 ft 461 kts 268°
2026-04-14 07:49 49.98449 6.61524 25669 ft 460 kts 266°
2026-04-14 07:50 49.98003 6.56608 26019 ft 460 kts 258°
2026-04-14 07:50 49.97082 6.51834 26358 ft 460 kts 250°
2026-04-14 07:50 49.95820 6.47249 26715 ft 459 kts 247°
2026-04-14 07:50 49.94540 6.42701 27081 ft 458 kts 247°
2026-04-14 07:51 49.93279 6.38227 27449 ft 458 kts 248°
2026-04-14 07:51 49.92000 6.33698 27843 ft 455 kts 247°
2026-04-14 07:51 49.90729 6.29205 28270 ft 453 kts 248°
2026-04-14 07:51 49.89450 6.24733 28673 ft 451 kts 247°
2026-04-14 07:52 49.88177 6.20345 29052 ft 450 kts 247°
2026-04-14 07:52 49.86909 6.15899 29436 ft 449 kts 247°
2026-04-14 07:52 49.85440 6.11602 29794 ft 450 kts 239°
2026-04-14 07:52 49.83661 6.07596 30103 ft 451 kts 236°
2026-04-14 07:53 49.81852 6.03636 30160 ft 450 kts 236°
2026-04-14 07:53 49.78224 5.95761 30159 ft 451 kts 236°
2026-04-14 07:54 49.74661 5.87745 30155 ft 450 kts 242°
2026-04-14 07:54 49.72284 5.78842 30150 ft 448 kts 252°
2026-04-14 07:55 49.70184 5.69758 30148 ft 448 kts 252°
2026-04-14 07:55 49.68066 5.60694 30149 ft 448 kts 252°
2026-04-14 07:56 49.65950 5.51693 30157 ft 448 kts 252°
2026-04-14 07:56 49.63815 5.42634 30155 ft 448 kts 252°
2026-04-14 07:57 49.61703 5.33607 30161 ft 449 kts 253°
2026-04-14 07:57 49.59743 5.24505 30163 ft 449 kts 255°
2026-04-14 07:58 49.57927 5.15278 30169 ft 448 kts 257°
2026-04-14 07:58 49.56357 5.06015 30171 ft 448 kts 258°
2026-04-14 07:59 49.54798 4.96743 30175 ft 448 kts 257°
2026-04-14 07:59 49.53153 4.87482 30176 ft 449 kts 258°
2026-04-14 08:00 49.51468 4.78213 30181 ft 449 kts 258°
2026-04-14 08:00 49.49793 4.69003 30185 ft 449 kts 258°
2026-04-14 08:01 49.48106 4.59741 30189 ft 449 kts 258°
2026-04-14 08:01 49.46419 4.50490 30187 ft 449 kts 257°
2026-04-14 08:02 49.44722 4.41233 30192 ft 450 kts 258°
2026-04-14 08:02 49.43021 4.31989 30193 ft 451 kts 258°
2026-04-14 08:03 49.41300 4.22710 30191 ft 452 kts 258°
2026-04-14 08:03 49.39567 4.13421 30193 ft 452 kts 258°
2026-04-14 08:04 49.37832 4.04178 30193 ft 452 kts 258°
2026-04-14 08:04 49.36113 3.94960 30193 ft 451 kts 259°
2026-04-14 08:05 49.34717 3.85599 30192 ft 449 kts 262°
2026-04-14 08:05 49.33486 3.76175 30193 ft 449 kts 263°
2026-04-14 08:06 49.32191 3.66784 30193 ft 450 kts 262°
2026-04-14 08:06 49.30818 3.57416 30193 ft 450 kts 261°
2026-04-14 08:07 49.29432 3.48104 30179 ft 451 kts 262°
2026-04-14 08:07 49.28041 3.38715 30193 ft 451 kts 263°
2026-04-14 08:08 49.26670 3.29325 30194 ft 451 kts 263°
2026-04-14 08:08 49.25299 3.20002 30194 ft 452 kts 262°
2026-04-14 08:09 49.23888 3.10613 30196 ft 452 kts 262°
2026-04-14 08:09 49.22460 3.01222 30193 ft 453 kts 263°
2026-04-14 08:10 49.21019 2.91829 30192 ft 453 kts 263°
2026-04-14 08:10 49.19611 2.82483 30193 ft 453 kts 263°
2026-04-14 08:11 49.18186 2.73082 30193 ft 453 kts 263°
2026-04-14 08:11 49.16749 2.63751 30171 ft 453 kts 264°
2026-04-14 08:12 49.15284 2.54374 30194 ft 453 kts 264°
2026-04-14 08:12 49.13835 2.45048 30199 ft 453 kts 264°
2026-04-14 08:13 49.12599 2.35641 30221 ft 447 kts 269°
2026-04-14 08:13 49.11739 2.26225 30194 ft 447 kts 269°
2026-04-14 08:14 49.10868 2.16860 30188 ft 447 kts 270°
2026-04-14 08:14 49.09971 2.07469 30193 ft 447 kts 269°
2026-04-14 08:15 49.08027 1.98255 30194 ft 466 kts 253°
2026-04-14 08:15 49.05324 1.89316 30189 ft 467 kts 253°
2026-04-14 08:16 49.02602 1.80303 30195 ft 468 kts 253°
2026-04-14 08:16 48.99900 1.71334 30191 ft 467 kts 253°
2026-04-14 08:17 48.97632 1.63871 30195 ft 466 kts 253°
2026-04-14 08:17 48.94889 1.54921 30183 ft 466 kts 253°
2026-04-14 08:18 48.92151 1.45972 30184 ft 466 kts 253°
2026-04-14 08:18 48.89433 1.37092 30192 ft 466 kts 253°
2026-04-14 08:19 48.86687 1.28158 30188 ft 464 kts 252°
2026-04-14 08:19 48.83938 1.19288 30191 ft 462 kts 252°
2026-04-14 08:20 48.81210 1.10513 30187 ft 462 kts 252°
2026-04-14 08:20 48.78462 1.01696 30184 ft 462 kts 252°
2026-04-14 08:21 48.75701 0.92876 30186 ft 462 kts 252°
2026-04-14 08:21 48.72621 0.84313 30180 ft 468 kts 246°
2026-04-14 08:22 48.69222 0.75901 30182 ft 467 kts 246°
2026-04-14 08:22 48.65844 0.67580 30182 ft 466 kts 246°
2026-04-14 08:23 48.62435 0.59198 30185 ft 468 kts 246°
2026-04-14 08:23 48.59026 0.50872 30184 ft 468 kts 246°
2026-04-14 08:24 48.55588 0.42493 30158 ft 468 kts 246°
2026-04-14 08:24 48.52180 0.34189 30189 ft 463 kts 246°
2026-04-14 08:25 48.48802 0.25983 30190 ft 462 kts 246°
2026-04-14 08:25 48.45388 0.17734 30193 ft 462 kts 246°
2026-04-14 08:26 48.41999 0.09569 30188 ft 463 kts 246°
2026-04-14 08:26 48.38567 0.01309 30193 ft 464 kts 246°
2026-04-14 08:27 48.35113 -0.06817 30186 ft 463 kts 243°
2026-04-14 08:27 48.31295 -0.14679 30185 ft 466 kts 240°
2026-04-14 08:28 48.27323 -0.22375 30188 ft 466 kts 240°
2026-04-14 08:28 48.23378 -0.30097 30187 ft 465 kts 240°
2026-04-14 08:29 48.19437 -0.37833 30183 ft 468 kts 240°
2026-04-14 08:29 48.15490 -0.45528 30172 ft 469 kts 240°
2026-04-14 08:30 48.11506 -0.53279 30172 ft 469 kts 240°
2026-04-14 08:30 48.07524 -0.61024 30163 ft 469 kts 240°
2026-04-14 08:31 48.03559 -0.68714 30166 ft 469 kts 240°
2026-04-14 08:31 47.97558 -0.80297 30167 ft 471 kts 240°
2026-04-14 08:32 47.93559 -0.87994 30164 ft 470 kts 239°
2026-04-14 08:32 47.89571 -0.95649 30171 ft 469 kts 239°
2026-04-14 08:33 47.85549 -1.03338 30165 ft 469 kts 239°
2026-04-14 08:33 47.81526 -1.11009 30166 ft 469 kts 239°
2026-04-14 08:34 47.77505 -1.18649 30158 ft 471 kts 239°
2026-04-14 08:34 47.73480 -1.26287 30135 ft 472 kts 239°
2026-04-14 08:35 47.69408 -1.33988 30151 ft 472 kts 238°
2026-04-14 08:35 47.65365 -1.41616 30146 ft 472 kts 238°
2026-04-14 08:36 47.61289 -1.49273 30428 ft 472 kts 238°
2026-04-14 08:36 47.59237 -1.53084 30714 ft 473 kts 238°
2026-04-14 08:36 47.57105 -1.56819 30962 ft 475 kts 236°
2026-04-14 08:37 47.54897 -1.60476 31186 ft 478 kts 234°
2026-04-14 08:37 47.52636 -1.64096 31424 ft 479 kts 234°
2026-04-14 08:37 47.50385 -1.67661 31630 ft 479 kts 234°
2026-04-14 08:37 47.48112 -1.71282 31912 ft 478 kts 234°
2026-04-14 08:38 47.45864 -1.74906 32207 ft 477 kts 235°
2026-04-14 08:38 47.43637 -1.78545 32450 ft 477 kts 236°
2026-04-14 08:38 47.41416 -1.82197 32699 ft 477 kts 236°
2026-04-14 08:38 47.39193 -1.85853 32939 ft 478 kts 236°
2026-04-14 08:39 47.36971 -1.89495 33174 ft 478 kts 236°
2026-04-14 08:39 47.34564 -1.92868 33381 ft 489 kts 226°
2026-04-14 08:39 47.31725 -1.95769 33586 ft 499 kts 218°
2026-04-14 08:39 47.28742 -1.98425 33798 ft 500 kts 218°
2026-04-14 08:40 47.25754 -2.01083 34028 ft 501 kts 218°
2026-04-14 08:40 47.22765 -2.03745 34246 ft 501 kts 218°
2026-04-14 08:40 47.19820 -2.06371 34427 ft 501 kts 218°
2026-04-14 08:40 47.16831 -2.09032 34714 ft 499 kts 218°
2026-04-14 08:41 47.13863 -2.11671 34978 ft 498 kts 218°
2026-04-14 08:41 47.10891 -2.14312 35110 ft 498 kts 219°
2026-04-14 08:41 47.04959 -2.19580 35134 ft 498 kts 218°
2026-04-14 08:42 46.99063 -2.24798 35141 ft 498 kts 218°
2026-04-14 08:42 46.93121 -2.30041 35132 ft 498 kts 218°
2026-04-14 08:43 46.87168 -2.35287 35136 ft 499 kts 218°
2026-04-14 08:43 46.81245 -2.40486 35136 ft 499 kts 218°
2026-04-14 08:44 46.75284 -2.45711 35120 ft 498 kts 218°
2026-04-14 08:44 46.69347 -2.50897 35128 ft 496 kts 218°
2026-04-14 08:45 46.63466 -2.56029 35132 ft 495 kts 218°
2026-04-14 08:45 46.57538 -2.61195 35136 ft 495 kts 218°
2026-04-14 08:46 46.51601 -2.66349 35143 ft 496 kts 218°
2026-04-14 08:46 46.45701 -2.71454 35126 ft 497 kts 218°
2026-04-14 08:47 46.39749 -2.76587 35121 ft 497 kts 218°
2026-04-14 08:47 46.33782 -2.81727 35127 ft 496 kts 218°
2026-04-14 08:48 46.27890 -2.86788 35135 ft 493 kts 219°
2026-04-14 08:48 46.22580 -2.92814 35130 ft 483 kts 228°
2026-04-14 08:49 46.17480 -2.99062 35133 ft 483 kts 228°
2026-04-14 08:49 46.12330 -3.05330 35127 ft 483 kts 228°
2026-04-14 08:50 46.07158 -3.11607 35133 ft 485 kts 228°
2026-04-14 08:50 46.02015 -3.17825 35108 ft 485 kts 227°
2026-04-14 08:51 45.96863 -3.24053 35133 ft 481 kts 227°
2026-04-14 08:51 45.91761 -3.30211 35136 ft 481 kts 227°
2026-04-14 08:52 45.86610 -3.36414 35131 ft 482 kts 227°
2026-04-14 08:52 45.81461 -3.42599 35130 ft 482 kts 227°
2026-04-14 08:53 45.76331 -3.48749 35133 ft 482 kts 227°
2026-04-14 08:53 45.71174 -3.54897 35117 ft 481 kts 227°
2026-04-14 08:54 45.66021 -3.61027 35133 ft 481 kts 227°
2026-04-14 08:54 45.60875 -3.67150 35136 ft 481 kts 227°
2026-04-14 08:55 45.55754 -3.73230 35133 ft 481 kts 227°
2026-04-14 08:55 45.50593 -3.79324 35122 ft 481 kts 227°
2026-04-14 08:56 45.45457 -3.85367 35135 ft 481 kts 227°
2026-04-14 08:56 45.40281 -3.91440 35131 ft 479 kts 227°
2026-04-14 08:57 45.35149 -3.97472 35136 ft 477 kts 227°
2026-04-14 08:57 45.30052 -4.03454 35131 ft 478 kts 226°
2026-04-14 08:58 45.24902 -4.09470 35141 ft 479 kts 226°
2026-04-14 08:58 45.19732 -4.15481 35144 ft 479 kts 226°
2026-04-14 08:59 45.14567 -4.21477 35144 ft 479 kts 226°
2026-04-14 08:59 45.09428 -4.27445 35144 ft 480 kts 226°
2026-04-14 09:00 45.04257 -4.33449 35146 ft 481 kts 226°
2026-04-14 09:00 44.99067 -4.39435 35150 ft 481 kts 226°
2026-04-14 09:01 44.93875 -4.45414 35146 ft 481 kts 226°
2026-04-14 09:01 44.88702 -4.51348 35146 ft 482 kts 226°
2026-04-14 09:02 44.83480 -4.57320 35148 ft 483 kts 226°
2026-04-14 09:02 44.78279 -4.63254 35144 ft 479 kts 226°
2026-04-14 09:03 44.73109 -4.69159 35150 ft 478 kts 226°
2026-04-14 09:03 44.67972 -4.75009 35147 ft 478 kts 226°
2026-04-14 09:04 44.62790 -4.80883 35154 ft 478 kts 226°
2026-04-14 09:04 44.57617 -4.86741 35159 ft 478 kts 226°
2026-04-14 09:05 44.53308 -4.91617 35152 ft 478 kts 226°
2026-04-14 09:05 44.48070 -4.97410 35151 ft 480 kts 224°
2026-04-14 09:06 44.42669 -5.02858 35163 ft 480 kts 221°
2026-04-14 09:06 44.37171 -5.08203 35160 ft 480 kts 221°
2026-04-14 09:07 44.31732 -5.13575 35166 ft 480 kts 222°
2026-04-14 09:07 44.26297 -5.19032 35166 ft 481 kts 223°
2026-04-14 09:08 44.20889 -5.24456 35165 ft 481 kts 222°
2026-04-14 09:08 44.15424 -5.29892 35166 ft 481 kts 222°
2026-04-14 09:09 44.09993 -5.35283 35157 ft 480 kts 222°
2026-04-14 09:09 44.04542 -5.40672 35170 ft 479 kts 222°
2026-04-14 09:10 43.99130 -5.46010 35171 ft 479 kts 222°
2026-04-14 09:10 43.93686 -5.51375 35175 ft 479 kts 222°
2026-04-14 09:11 43.88237 -5.56742 35177 ft 480 kts 222°
2026-04-14 09:11 43.82808 -5.62073 35184 ft 481 kts 222°
2026-04-14 09:12 43.77328 -5.67425 35182 ft 481 kts 221°
2026-04-14 09:12 43.71846 -5.72765 35164 ft 481 kts 221°
2026-04-14 09:13 43.66410 -5.78063 35183 ft 481 kts 221°
2026-04-14 09:13 43.60922 -5.83409 35179 ft 481 kts 221°
2026-04-14 09:14 43.55438 -5.88730 35191 ft 481 kts 221°
2026-04-14 09:14 43.49963 -5.94023 35192 ft 482 kts 221°
2026-04-14 09:15 43.44499 -5.99288 35192 ft 483 kts 221°
2026-04-14 09:15 43.38974 -6.04602 35194 ft 483 kts 221°
2026-04-14 09:16 43.33465 -6.09898 35177 ft 483 kts 221°
2026-04-14 09:16 43.27952 -6.15183 35200 ft 482 kts 221°
2026-04-14 09:17 43.22478 -6.20427 35207 ft 482 kts 221°
2026-04-14 09:17 43.16956 -6.25706 35222 ft 483 kts 221°
2026-04-14 09:18 43.11452 -6.30942 35221 ft 483 kts 221°
2026-04-14 09:18 43.05947 -6.36169 35224 ft 483 kts 221°
2026-04-14 09:19 43.00413 -6.41419 35237 ft 484 kts 221°
2026-04-14 09:19 42.94890 -6.46641 35219 ft 484 kts 221°
2026-04-14 09:20 42.89355 -6.51864 35240 ft 482 kts 221°
2026-04-14 09:20 42.83869 -6.57035 35248 ft 482 kts 221°
2026-04-14 09:21 42.78333 -6.62239 35253 ft 483 kts 221°
2026-04-14 09:21 42.72826 -6.67401 35249 ft 483 kts 220°
2026-04-14 09:22 42.67281 -6.72585 35251 ft 483 kts 220°
2026-04-14 09:22 42.61726 -6.77767 35251 ft 483 kts 220°
2026-04-14 09:23 42.56181 -6.82933 35258 ft 483 kts 220°
2026-04-14 09:23 42.50674 -6.88050 35256 ft 481 kts 220°
2026-04-14 09:24 42.45136 -6.93192 35258 ft 480 kts 220°
2026-04-14 09:24 42.39651 -6.98268 35248 ft 480 kts 220°
2026-04-14 09:25 42.34127 -7.03359 35262 ft 480 kts 220°
2026-04-14 09:25 42.28769 -7.08709 35267 ft 472 kts 230°
2026-04-14 09:26 42.26544 -7.11905 34717 ft 470 kts 238°
2026-04-14 09:26 42.24719 -7.15521 34071 ft 460 kts 245°
2026-04-14 09:26 42.23074 -7.19211 33797 ft 460 kts 245°
2026-04-14 09:26 42.21396 -7.22913 33517 ft 463 kts 244°
2026-04-14 09:27 42.19693 -7.26619 33253 ft 463 kts 243°
2026-04-14 09:27 42.18001 -7.30258 32990 ft 464 kts 243°
2026-04-14 09:27 42.16281 -7.33941 32725 ft 465 kts 243°
2026-04-14 09:27 42.14552 -7.37639 32414 ft 465 kts 243°
2026-04-14 09:28 42.12827 -7.41336 31392 ft 468 kts 243°
2026-04-14 09:28 42.11103 -7.45048 30518 ft 467 kts 243°
2026-04-14 09:28 42.09381 -7.48767 29407 ft 468 kts 243°
2026-04-14 09:28 42.07657 -7.52490 28325 ft 469 kts 242°
2026-04-14 09:29 42.05926 -7.56215 27281 ft 468 kts 242°
2026-04-14 09:29 42.04192 -7.59942 26092 ft 471 kts 242°
2026-04-14 09:29 42.02445 -7.63687 24892 ft 474 kts 242°
2026-04-14 09:29 42.00690 -7.67438 23800 ft 474 kts 241°
2026-04-14 09:30 41.98933 -7.71180 22777 ft 468 kts 241°
2026-04-14 09:30 41.97226 -7.74807 21911 ft 461 kts 241°
2026-04-14 09:30 41.95525 -7.78418 21024 ft 455 kts 241°
2026-04-14 09:30 41.93843 -7.81991 20150 ft 450 kts 241°
2026-04-14 09:31 41.92177 -7.85532 19286 ft 445 kts 241°
2026-04-14 09:31 41.90523 -7.89047 18421 ft 439 kts 241°
2026-04-14 09:31 41.88916 -7.92463 17495 ft 434 kts 241°
2026-04-14 09:31 41.87314 -7.95858 16683 ft 425 kts 240°
2026-04-14 09:32 41.85739 -7.99191 15618 ft 414 kts 240°
2026-04-14 09:32 41.84241 -8.02347 14876 ft 397 kts 240°
2026-04-14 09:32 41.81345 -8.08452 13432 ft 384 kts 240°
2026-04-14 09:33 41.79955 -8.11496 12756 ft 380 kts 241°
2026-04-14 09:33 41.78618 -8.14541 12103 ft 377 kts 242°
2026-04-14 09:33 41.77325 -8.17542 11467 ft 373 kts 242°
2026-04-14 09:33 41.76061 -8.20480 11080 ft 351 kts 242°
2026-04-14 09:34 41.74872 -8.23225 10727 ft 332 kts 242°
2026-04-14 09:34 41.73743 -8.25848 10344 ft 316 kts 242°
2026-04-14 09:34 41.72684 -8.28352 9951 ft 303 kts 242°
2026-04-14 09:34 41.71672 -8.30772 9522 ft 292 kts 243°
2026-04-14 09:35 41.70699 -8.33102 9109 ft 282 kts 242°
2026-04-14 09:35 41.69756 -8.35360 8665 ft 273 kts 242°
2026-04-14 09:35 41.68853 -8.37509 8336 ft 263 kts 243°
2026-04-14 09:35 41.67975 -8.39586 8075 ft 249 kts 242°
2026-04-14 09:36 41.67138 -8.41553 7821 ft 240 kts 243°
2026-04-14 09:36 41.66320 -8.43481 7564 ft 237 kts 242°
2026-04-14 09:36 41.65510 -8.45401 7324 ft 235 kts 244°
2026-04-14 09:36 41.64706 -8.47313 7074 ft 234 kts 242°
2026-04-14 09:37 41.63906 -8.49206 6826 ft 233 kts 242°
2026-04-14 09:37 41.63118 -8.51070 6573 ft 232 kts 242°
2026-04-14 09:37 41.62326 -8.52939 6329 ft 230 kts 242°
2026-04-14 09:37 41.61535 -8.54801 6076 ft 230 kts 241°
2026-04-14 09:38 41.60743 -8.56640 5826 ft 224 kts 242°
2026-04-14 09:38 41.59998 -8.58384 5581 ft 215 kts 242°
2026-04-14 09:38 41.59247 -8.60068 5342 ft 208 kts 241°
2026-04-14 09:38 41.58473 -8.61680 5086 ft 204 kts 239°
2026-04-14 09:39 41.57695 -8.63267 4826 ft 203 kts 238°
2026-04-14 09:39 41.56922 -8.64843 4568 ft 202 kts 238°
2026-04-14 09:39 41.56154 -8.66413 4307 ft 201 kts 237°
2026-04-14 09:39 41.55394 -8.67954 4086 ft 200 kts 238°
2026-04-14 09:40 41.54632 -8.69521 4011 ft 201 kts 238°
2026-04-14 09:40 41.53869 -8.71090 4011 ft 201 kts 238°
2026-04-14 09:40 41.53095 -8.72656 4012 ft 203 kts 233°
2026-04-14 09:40 41.52056 -8.73929 4019 ft 205 kts 213°
2026-04-14 09:41 41.50740 -8.74609 4018 ft 207 kts 192°
2026-04-14 09:41 41.49295 -8.74576 4019 ft 210 kts 171°
2026-04-14 09:41 41.47917 -8.74205 4004 ft 194 kts 171°
2026-04-14 09:41 41.46614 -8.73860 3857 ft 189 kts 171°
2026-04-14 09:42 41.45328 -8.73523 3633 ft 188 kts 171°
2026-04-14 09:42 41.44062 -8.73190 3422 ft 187 kts 172°
2026-04-14 09:42 41.42780 -8.72853 3193 ft 187 kts 172°
2026-04-14 09:42 41.41506 -8.72517 2966 ft 186 kts 172°
2026-04-14 09:43 41.40234 -8.72182 2743 ft 186 kts 172°
2026-04-14 09:43 41.38995 -8.71855 2521 ft 177 kts 172°
2026-04-14 09:43 41.37834 -8.71547 2315 ft 164 kts 172°
2026-04-14 09:43 41.36771 -8.71267 2114 ft 148 kts 171°
2026-04-14 09:44 41.35805 -8.71013 1927 ft 137 kts 171°
2026-04-14 09:44 41.34879 -8.70770 1766 ft 134 kts 171°
2026-04-14 09:44 41.33967 -8.70531 1605 ft 133 kts 170°
2026-04-14 09:44 41.33060 -8.70293 1440 ft 132 kts 170°
2026-04-14 09:45 41.32160 -8.70055 1282 ft 133 kts 171°
2026-04-14 09:45 41.31264 -8.69820 1116 ft 132 kts 170°
2026-04-14 09:45 41.30361 -8.69582 958 ft 133 kts 170°
2026-04-14 09:45 41.29450 -8.69351 801 ft 134 kts 171°
2026-04-14 09:46 41.28533 -8.69114 655 ft 134 kts 171°
2026-04-14 09:46 41.27622 -8.68851 497 ft 134 kts 171°
2026-04-14 09:46 41.26688 -8.68610 309 ft 137 kts 172°
2026-04-14 09:46 41.25761 -8.68372 202 ft 131 kts 171°
2026-04-14 09:47 41.24956 -8.68166 198 ft 98 kts 169°
2026-04-14 09:47 41.24451 -8.68035 208 ft 57 kts 168°
2026-04-14 09:47 41.24134 -8.67950 215 ft 32 kts 168°
2026-04-14 09:47 41.23937 -8.67896 221 ft 19 kts 160°
2026-04-14 09:48 41.23897 -8.67778 223 ft 14 kts 80°
2026-04-14 09:48 41.23910 -8.67694 228 ft 5 kts 78°
2026-04-14 09:48 41.23914 -8.67667 230 ft 1 kts 78°
2026-04-14 09:48 41.23915 -8.67659 230 ft 2 kts 78°
2026-04-14 09:49 41.23917 -8.67644 231 ft 1 kts 78°
2026-04-14 09:49 41.23920 -8.67629 232 ft 2 kts 78°
2026-04-14 09:49 41.23921 -8.67618 234 ft 0 kts 78°
2026-04-14 09:49 41.23922 -8.67616 234 ft 2 kts 78°
2026-04-14 09:50 41.23923 -8.67608 233 ft 0 kts 78°
2026-04-14 09:52 41.23924 -8.67599 234 ft 4 kts 78°
2026-04-14 09:52 41.23930 -8.67555 236 ft 6 kts 86°
2026-04-14 09:53 41.23907 -8.67503 238 ft 7 kts 146°
2026-04-14 09:53 41.23865 -8.67487 239 ft 7 kts 168°
2026-04-14 09:53 41.23815 -8.67474 239 ft 8 kts 169°
2026-04-14 09:53 41.23765 -8.67457 239 ft 7 kts 156°
2026-04-14 09:54 41.23735 -8.67420 240 ft 4 kts 127°
2026-04-14 09:54 41.23718 -8.67391 241 ft 4 kts 127°
2026-04-14 09:54 41.23698 -8.67359 242 ft 5 kts 140°
2026-04-14 09:54 41.23678 -8.67330 243 ft 3 kts 106°
2026-04-14 09:55 41.23678 -8.67304 244 ft 3 kts 82°
2026-04-14 09:55 41.23682 -8.67280 245 ft 3 kts 78°
2026-04-14 09:55 41.23684 -8.67268 245 ft 1 kts 78°
2026-04-14 09:55 41.23686 -8.67257 245 ft 1 kts 78°
2026-04-14 09:56 41.23686 -8.67254 245 ft 0 kts 78°
2026-04-14 09:56 41.23686 -8.67253 245 ft 0 kts 78°